[[{"header":{"parameterUnit":"m.s-1","parameterCategory":1,"la1":30.2991,"la2":30.254,"lo1":-89.0895,"lo2":-89.0444,"dy":0.0017,"dx":0.0017,"nx":28,"ny":28,"refTime":"2024-10-21T21:00:00:Z","depth":0,"parameterNumber":2,"parameterNumberName":"U-component_of_WINDS"},"data":[0,0,0,0,0,0,0,0,0,0,0,0,0,0,0,0,0,0,0,0,0,0,0,0,0,0,0,0,0,0,0,0,0,0,0,0,0,0,0,0,0,0,0,0,0,0,0,0,0,0,0,0,0,0,0,0,0,0,-1.6879,-1.6879,0,-1.6851,-1.6851,-1.6851,-1.6784,-1.6782,-1.6781,-1.6779,-1.6753,-1.6754,-1.6755,0,0,0,0,0,0,0,0,0,0,0,0,0,-1.6877,-1.6877,-1.6879,-1.6879,-1.6879,-1.6852,-1.6851,-1.6851,-1.6784,-1.6782,-1.678,-1.6779,-1.6753,-1.6754,-1.6755,0,0,0,0,0,0,0,0,0,0,0,0,0,-1.6867,-1.6877,-1.6879,-1.6842,-1.6838,-1.6852,-1.6851,-1.6851,-1.6784,-1.6782,-1.678,-1.6778,-1.6753,-1.6754,-1.6755,-1.6803,0,0,-1.6758,-1.6758,0,0,0,0,0,0,0,0,-1.6867,-1.6867,-1.6848,-1.6844,-1.684,-1.6819,-1.6841,-1.6835,-1.6785,-1.6805,-1.6779,-1.6777,-1.6777,-1.6776,-1.6775,-1.6802,-1.6801,-1.6758,-1.6758,-1.6759,-1.6759,0,0,0,0,0,0,0,-1.6868,-1.6868,-1.6868,-1.6847,-1.6843,-1.6827,-1.6823,-1.6839,-1.6803,-1.6803,-1.6798,-1.6795,-1.6775,-1.6775,-1.6774,-1.68,-1.6758,-1.6759,-1.6759,-1.6759,-1.6867,-1.6869,0,0,0,0,0,0,-1.6874,-1.6869,-1.6869,-1.6867,-1.6849,-1.6829,-1.6825,-1.6828,-1.6803,-1.6797,-1.6797,-1.6792,-1.6774,-1.6773,-1.6773,-1.6829,-1.6759,-1.676,-1.676,-1.6865,-1.6867,-1.687,0,0,0,0,0,0,-1.6874,-1.6874,-1.687,-1.6867,-1.6865,-1.6831,-1.6835,-1.6828,-1.6828,-1.6799,-1.6792,-1.6804,-1.6772,-1.6772,-1.6796,-1.6827,-1.676,-1.6761,-1.6862,-1.6865,-1.6869,-1.6941,0,0,0,0,0,0,-1.6874,-1.6875,-1.6892,-1.6868,-1.6865,-1.6893,-1.6837,-1.6829,-1.683,-1.6823,-1.6803,-1.6798,-1.6771,-1.6795,-1.6797,-1.6827,-1.6762,-1.6859,-1.6863,-1.6867,-1.6936,-1.6946,-1.6956,0,0,0,0,0,-1.6874,-1.6914,-1.6893,-1.6894,-1.6886,-1.6895,-1.6894,-1.6862,-1.6833,-1.685,-1.6831,-1.6798,-1.6823,-1.6798,-1.68,-1.6831,-1.6857,-1.6862,-1.6867,-1.6931,-1.6944,-1.6955,0,0,0,0,0,0,-1.6943,-1.691,-1.6887,-1.6919,-1.6911,-1.6884,-1.6905,-1.6876,-1.6876,-1.687,-1.683,-1.6827,-1.6857,-1.6846,-1.6819,-1.6877,-1.6835,-1.6841,-1.6883,-1.6895,-1.6905,-1.6907,-1.6762,0,0,0,0,0,-1.6962,-1.6972,-1.6942,-1.6974,-1.697,-1.6939,-1.6941,-1.6917,-1.6907,-1.6903,-1.6886,-1.6878,-1.6884,-1.6889,-1.6893,-1.6934,-1.6929,-1.6956,-1.6966,-1.6974,-1.698,-1.7002,-1.7014,-1.6887,-1.6887,-1.6887,0,0,-1.7002,-1.6984,-1.6993,-1.6987,-1.6977,-1.6989,-1.6936,-1.695,-1.6959,-1.6905,-1.6927,-1.6915,-1.6903,-1.6937,-1.6951,-1.6929,-1.7014,-1.6981,-1.6988,-1.6989,-1.7009,-1.7021,-1.7032,-1.689,-1.689,-1.6889,0,0,-1.7079,-1.7067,-1.7092,-1.7084,-1.707,-1.7049,-1.7055,-1.7033,-1.7022,-1.7044,-1.7004,-1.7014,-1.7025,-1.7019,-1.7018,-1.7095,-1.7065,-1.7097,-1.715,-1.7172,-1.7182,-1.7191,-1.7219,-1.723,-1.7103,-1.7103,-1.7103,0,-1.713,-1.7145,-1.7109,-1.7126,-1.7125,-1.7077,-1.7104,-1.7097,-1.7086,-1.7087,-1.7063,-1.7076,-1.7065,-1.7097,-1.7116,-1.7116,-1.7123,-1.7099,-1.7183,-1.7192,-1.7199,-1.7226,-1.7237,-1.7107,-1.7107,-1.7106,-1.7106,0,-1.7209,-1.722,-1.7243,-1.7232,-1.7234,-1.7256,-1.7224,-1.7231,-1.7207,-1.7189,-1.7212,-1.7197,-1.7198,-1.7204,-1.718,-1.7233,-1.722,-1.719,-1.7147,-1.7216,-1.7241,-1.7251,-1.7113,-1.7111,-1.711,-1.7109,0,0,-1.7329,-1.7299,-1.7308,-1.7303,-1.7285,-1.7294,-1.7314,-1.7314,-1.7321,-1.7315,-1.7332,-1.7343,-1.7315,-1.7314,-1.729,-1.7309,-1.7373,-1.7277,-1.7276,-1.7296,-1.7431,-1.7455,-1.7467,-1.7353,-1.7354,-1.7356,-1.7433,0,-1.7403,-1.7434,-1.7403,-1.7442,-1.7453,-1.7408,-1.7426,-1.7417,-1.7401,-1.7409,-1.7391,-1.74,-1.7363,-1.7362,-1.7379,-1.7361,-1.74,-1.7355,-1.7369,-1.737,-1.7374,-1.748,-1.7504,-1.7577,-1.7442,-1.7444,-1.7445,0,-1.7493,-1.7491,-1.7531,-1.7511,-1.7514,-1.7531,-1.7529,-1.7537,-1.7527,-1.7514,-1.7513,-1.7484,-1.7503,-1.7461,-1.7489,-1.746,-1.7463,-1.7456,-1.7458,-1.7459,-1.7412,-1.7484,-1.76,-1.7611,-1.746,-1.7458,-1.7457,0,-1.7578,-1.7585,-1.761,-1.7607,-1.7585,-1.7598,-1.7589,-1.7577,-1.758,-1.7579,-1.758,-1.7582,-1.7583,-1.7586,-1.7558,-1.753,-1.759,-1.7545,-1.7581,-1.7582,-1.7596,-1.7596,-1.7715,-1.7598,-1.7598,-1.7597,-1.7597,0,-1.7664,-1.769,-1.7648,-1.7664,-1.7693,-1.7657,-1.7687,-1.7674,-1.7664,-1.7677,-1.7638,-1.7651,-1.7614,-1.7624,-1.7603,-1.763,-1.7631,-1.7622,-1.7616,-1.7626,-1.7627,-1.7628,-1.7623,-1.76,-1.76,-1.7599,-1.7599,0,-1.7763,-1.7736,-1.7761,-1.7738,-1.7732,-1.7755,-1.7735,-1.775,-1.7731,-1.7749,-1.7751,-1.7722,-1.7732,-1.7705,-1.7711,-1.7697,-1.7736,-1.7722,-1.774,-1.7736,-1.7774,-1.7771,-1.7898,-1.7914,-1.7786,-1.7787,-1.7788,0,-1.782,-1.784,-1.7819,-1.7825,-1.7818,-1.7828,-1.783,-1.7797,-1.7801,-1.7792,-1.7808,-1.7814,-1.7818,-1.7836,-1.7817,-1.7821,-1.7807,-1.7852,-1.7808,-1.7818,-1.781,-1.7809,-1.7812,-1.7861,-1.7863,-1.7864,-1.7865,0,-1.7925,-1.7911,-1.7916,-1.7916,-1.792,-1.7919,-1.7916,-1.7923,-1.7887,-1.7894,-1.7904,-1.7907,-1.7913,-1.792,-1.7921,-1.7913,-1.7884,-1.7879,-1.7888,-1.7898,-1.7908,-1.7905,-1.7765,-1.7876,-1.7875,-1.7874,-1.7874,-1.7873,-1.8006,-1.8021,-1.8009,-1.8016,-1.801,-1.8008,-1.8021,-1.8004,-1.8011,-1.8013,-1.7993,-1.8007,-1.7998,-1.7996,-1.7991,-1.8003,-1.7983,-1.7995,-1.7998,-1.8002,-1.8009,-1.7906,-1.8003,-1.8002,-1.8002,-1.8002,-1.8001,0,-1.8109,-1.81,-1.8106,-1.8103,-1.8109,-1.808,-1.8075,-1.8082,-1.8095,-1.8089,-1.8093,-1.8105,-1.8112,-1.8094,-1.8099,-1.8112,-1.8099,-1.8115,-1.8114,-1.8113,-1.8026,-1.8019,-1.8125,-1.8125,-1.8125,-1.8125,-1.8125,-1.8125,-1.8164,-1.8189,-1.8174,-1.8197,-1.8187,-1.82,-1.82,-1.8198,-1.8193,-1.8208,-1.8214,-1.8201,-1.8191,-1.8195,-1.8201,-1.8196,-1.82,-1.8221,-1.8211,-1.8131,-1.8119,-1.8107,-1.81,-1.8222,-1.8222,-1.8297,-1.8297,-1.8298]},{"header":{"parameterUnit":"m.s-1","parameterCategory":1,"la1":30.2991,"la2":30.254,"lo1":-89.0895,"lo2":-89.0444,"dy":0.0017,"dx":0.0017,"nx":28,"ny":28,"refTime":"2024-10-21T21:00:00:Z","depth":0,"parameterNumber":3,"parameterNumberName":"V-component_of_WINDS"},"data":[0,0,0,0,0,0,0,0,0,0,0,0,0,0,0,0,0,0,0,0,0,0,0,0,0,0,0,0,0,0,0,0,0,0,0,0,0,0,0,0,0,0,0,0,0,0,0,0,0,0,0,0,0,0,0,0,0,0,0.0257,0.0257,0,0.0245,0.0245,0.0245,0.0335,0.0337,0.034,0.0342,0.0327,0.0325,0.0322,0,0,0,0,0,0,0,0,0,0,0,0,0,0.0354,0.0352,0.0257,0.0257,0.0257,0.0245,0.0245,0.0245,0.0334,0.0338,0.0341,0.0344,0.0328,0.0325,0.0322,0,0,0,0,0,0,0,0,0,0,0,0,0,0.0324,0.0351,0.0257,0.03,0.0304,0.0245,0.0245,0.0245,0.0334,0.0338,0.0341,0.0345,0.0329,0.0325,0.0321,0.022,0,0,0.0309,0.0307,0,0,0,0,0,0,0,0,0.0326,0.032,0.0294,0.0297,0.0301,0.0296,0.0274,0.0237,0.0333,0.0322,0.0342,0.0347,0.0313,0.0311,0.03,0.0219,0.0219,0.0308,0.0306,0.0304,0.0303,0,0,0,0,0,0,0,0.0328,0.0321,0.0253,0.0294,0.0298,0.0319,0.0319,0.0267,0.0297,0.0324,0.033,0.0328,0.0316,0.0304,0.0301,0.0219,0.0308,0.0305,0.0302,0.0301,0.0052,0.0049,0,0,0,0,0,0,0.0324,0.0322,0.0253,0.0252,0.0323,0.0314,0.0314,0.0294,0.0298,0.0302,0.0324,0.0332,0.0309,0.0305,0.03,0.0181,0.0304,0.03,0.0298,0.0057,0.0052,0.0047,0,0,0,0,0,0,0.0326,0.0317,0.0253,0.0289,0.0283,0.0309,0.0285,0.0291,0.0279,0.0298,0.0304,0.0307,0.0312,0.0306,0.0239,0.0182,0.0298,0.0295,0.0061,0.0055,0.0049,-0.0058,0,0,0,0,0,0,0.0328,0.0317,0.028,0.0288,0.028,0.0193,0.0281,0.0288,0.0272,0.0282,0.0283,0.0287,0.0315,0.0245,0.0235,0.0178,0.0291,0.0067,0.0059,0.0051,-0.005,-0.0068,-0.0083,0,0,0,0,0,0.0332,0.025,0.0277,0.0269,0.0234,0.0189,0.0185,0.0219,0.0267,0.0229,0.0241,0.0287,0.019,0.0237,0.0227,0.0168,0.007,0.0061,0.0052,-0.0042,-0.0064,-0.0082,0,0,0,0,0,0,0.0233,0.0251,0.0282,0.0201,0.0193,0.0205,0.0158,0.0196,0.0173,0.0183,0.0226,0.0225,0.015,0.0153,0.0205,0.007,0.0138,0.0127,0.007,0.005,0.0034,0.0034,0.0288,0,0,0,0,0,0.0203,0.0166,0.0183,0.0109,0.0104,0.0131,0.0113,0.014,0.0133,0.013,0.0138,0.0128,0.0096,0.0073,0.0045,-0.0048,-0.0048,-0.0094,-0.0111,-0.0124,-0.0136,-0.0186,-0.0207,0.0017,0.0017,0.0017,0,0,0.0138,0.0143,0.0117,0.009,0.0087,0.0046,0.0128,0.0082,0.0052,0.0123,0.006,0.0065,0.0057,-0.0023,-0.0059,-0.0024,-0.0197,-0.0136,-0.0147,-0.0151,-0.0198,-0.0219,-0.0238,0.001,0.0012,0.0013,0,0,-0.0001,-0.0,-0.0062,-0.0067,-0.0072,-0.0053,-0.0068,-0.0062,-0.0056,-0.0118,-0.0066,-0.0101,-0.0158,-0.0166,-0.0177,-0.032,-0.028,-0.033,-0.0418,-0.0468,-0.0485,-0.0501,-0.0554,-0.0573,-0.0341,-0.0342,-0.0342,0,-0.0082,-0.0139,-0.0099,-0.0149,-0.0163,-0.0099,-0.0163,-0.0169,-0.0184,-0.0196,-0.0156,-0.0227,-0.0227,-0.031,-0.0345,-0.0355,-0.0372,-0.0331,-0.0486,-0.0501,-0.0515,-0.0565,-0.0584,-0.0348,-0.0347,-0.0346,-0.0346,0,-0.0239,-0.028,-0.0329,-0.0345,-0.0364,-0.0421,-0.039,-0.0415,-0.0386,-0.0372,-0.0437,-0.0435,-0.0463,-0.048,-0.0453,-0.056,-0.0538,-0.0493,-0.0423,-0.0543,-0.0589,-0.0608,-0.0357,-0.0355,-0.0353,-0.0351,0,0,-0.0441,-0.0433,-0.0452,-0.0459,-0.046,-0.0492,-0.0546,-0.0572,-0.0595,-0.0607,-0.0653,-0.0702,-0.066,-0.0673,-0.0646,-0.0689,-0.0805,-0.0639,-0.0638,-0.0672,-0.0925,-0.0961,-0.0983,-0.0777,-0.078,-0.0783,-0.0925,0,-0.0578,-0.0669,-0.0635,-0.0729,-0.0768,-0.0708,-0.0755,-0.0761,-0.075,-0.0781,-0.0768,-0.0805,-0.0746,-0.0753,-0.0793,-0.0782,-0.0855,-0.0771,-0.0821,-0.0823,-0.0823,-0.1007,-0.1045,-0.1178,-0.0942,-0.0945,-0.0947,0,-0.0751,-0.077,-0.0868,-0.0863,-0.0878,-0.0921,-0.0943,-0.0973,-0.098,-0.0968,-0.0983,-0.0946,-0.1,-0.0929,-0.1004,-0.0948,-0.0965,-0.0963,-0.0967,-0.0973,-0.0894,-0.1019,-0.122,-0.1241,-0.0975,-0.0973,-0.0971,0,-0.0891,-0.0941,-0.1006,-0.1014,-0.1009,-0.1041,-0.1041,-0.1043,-0.1062,-0.1081,-0.1093,-0.1119,-0.1134,-0.1155,-0.1127,-0.1077,-0.1207,-0.1133,-0.12,-0.1201,-0.1232,-0.1231,-0.1441,-0.124,-0.124,-0.1239,-0.1239,0,-0.1049,-0.1112,-0.107,-0.111,-0.1179,-0.1139,-0.1209,-0.1202,-0.1205,-0.1244,-0.1193,-0.1231,-0.1191,-0.1225,-0.1203,-0.127,-0.1276,-0.127,-0.1264,-0.1276,-0.1277,-0.1288,-0.1279,-0.1245,-0.1244,-0.1243,-0.1242,0,-0.1219,-0.1192,-0.126,-0.125,-0.1249,-0.1301,-0.1293,-0.1331,-0.1315,-0.1365,-0.1374,-0.1351,-0.1389,-0.1362,-0.14,-0.1385,-0.1473,-0.1453,-0.1471,-0.1466,-0.1536,-0.1531,-0.1763,-0.1792,-0.1571,-0.1573,-0.1575,0,-0.1322,-0.1369,-0.1364,-0.1387,-0.1389,-0.1426,-0.1444,-0.1407,-0.1428,-0.1439,-0.1477,-0.151,-0.1535,-0.1599,-0.1586,-0.1615,-0.1596,-0.1675,-0.1601,-0.1612,-0.16,-0.1599,-0.1604,-0.1692,-0.1694,-0.1696,-0.1698,0,-0.151,-0.1495,-0.1523,-0.1547,-0.1571,-0.1588,-0.1601,-0.1623,-0.1585,-0.1612,-0.165,-0.1669,-0.1708,-0.1743,-0.1767,-0.1767,-0.1728,-0.1721,-0.1739,-0.1753,-0.1762,-0.176,-0.1515,-0.1717,-0.1715,-0.1713,-0.1712,-0.1712,-0.1651,-0.1691,-0.1694,-0.1727,-0.1733,-0.1747,-0.1782,-0.1771,-0.1801,-0.183,-0.1805,-0.1852,-0.1858,-0.1886,-0.1892,-0.1928,-0.1896,-0.1921,-0.1927,-0.1935,-0.1946,-0.1755,-0.1932,-0.1931,-0.1931,-0.193,-0.193,0,-0.1838,-0.1837,-0.1868,-0.1888,-0.1915,-0.1873,-0.1886,-0.1911,-0.1952,-0.1961,-0.1986,-0.2031,-0.2064,-0.2053,-0.2083,-0.2115,-0.2097,-0.2124,-0.2123,-0.2124,-0.1972,-0.1954,-0.2138,-0.2138,-0.2138,-0.2138,-0.2138,-0.2138,-0.1939,-0.2004,-0.1989,-0.2057,-0.2055,-0.21,-0.2111,-0.2124,-0.213,-0.2182,-0.2209,-0.2202,-0.2203,-0.2233,-0.2262,-0.2258,-0.2272,-0.2306,-0.2296,-0.2155,-0.2134,-0.2115,-0.2099,-0.2309,-0.231,-0.2446,-0.2447,-0.2448]}]]